Weather History for KMIB - November, 2012

Change the Weather History Date:

Sunday, November 4, 2012

  Actual Average Record
Temperature  
Mean Temperature 30 °F -  
Max Temperature 32 °F 39 °F 62 °F (1999)
Min Temperature 27 °F 20 °F 14 °F (2003)
Degree Days  
Heating Degree Days 36    
Moisture  
Dew Point 30 °F    
Average Humidity 96    
Maximum Humidity 100    
Minimum Humidity 86    
Precipitation  
Precipitation 0.19 in - - ()
Sea Level Pressure  
Sea Level Pressure 30.20 in    
Wind  
Wind Speed 8 mph (SSE)    
Max Wind Speed 14 mph    
Max Gust Speed -    
Visibility 4 miles    
Events Fog , Rain , Snow    
Averages and records for this station are not official NWS values.
T = Trace of Precipitation, MM = Missing Value Source: NWS Daily Summary

Daily Weather History Graph

Daily Weather History Graph

Search for Another Location

Airport or City:

Trip Planner

Search our weather history database for the weather conditions in past years. The results will help you decide how hot, cold, wet, or windy it might be!

Date:

Astronomy

Nov. 04, 2012 Rise Set
Actual Time 7:36 AM CST 5:20 PM CST
Civil Twilight 7:03 AM CST 5:53 PM CST
Nautical Twilight 6:26 AM CST 6:30 PM CST
Astronomical Twilight 5:50 AM CST 7:07 PM CST
Moon 9:56 PM CST (11/4) 12:26 PM CST (11/4)
Length of Visible Light 10h 49m
Length of Day
9h 43m
Waning Gibbous, 72% of the Moon is Illuminated
Nov 4
Waning Gibbous
Nov 6
Last Quarter
Nov 13
New
Nov 20
First Quarter
Nov 28
Full

Hourly Weather History & Observations

Time (CST) Temp. Windchill Dew Point Humidity Pressure Visibility Wind Dir Wind Speed Gust Speed Precip Events Conditions
12:55 AM 27.9 °F 18.4 °F 24.8 °F 88% 30.26 in 10.0 mi SSE 10.4 mph - N/A   Overcast
1:55 AM 27.7 °F 18.2 °F 24.8 °F 89% 30.26 in 10.0 mi SSE 10.4 mph - N/A   Overcast
1:55 AM 27.7 °F 18.8 °F 25.0 °F 90% 30.24 in 10.0 mi South 9.2 mph - N/A   Overcast
2:55 AM 28.0 °F 20.0 °F 25.7 °F 91% 30.23 in 10.0 mi SSE 8.1 mph - N/A   Overcast
2:58 AM 28.4 °F 20.4 °F 24.8 °F 86% 30.22 in 10.0 mi SSE 8.1 mph - N/A   Overcast
3:52 AM 28.4 °F 19.7 °F 26.6 °F 93% 30.21 in 10.0 mi SSE 9.2 mph - N/A   Overcast
3:55 AM 28.2 °F 19.5 °F 25.9 °F 91% 30.21 in 10.0 mi SSE 9.2 mph - N/A   Overcast
4:55 AM 28.4 °F 19.1 °F 26.1 °F 91% 30.20 in 10.0 mi SSE 10.4 mph - N/A   Overcast
5:55 AM 28.6 °F 19.9 °F 26.1 °F 90% 30.19 in 10.0 mi SSE 9.2 mph - N/A   Overcast
6:55 AM 28.8 °F 19.5 °F 26.2 °F 90% 30.18 in 10.0 mi SSE 10.4 mph - N/A   Overcast
7:55 AM 28.9 °F 19.2 °F 26.6 °F 91% 30.16 in 10.0 mi SSE 11.5 mph - 0.00 in   Overcast
8:55 AM 29.3 °F 19.6 °F 27.1 °F 92% 30.15 in 10.0 mi SSE 11.5 mph - N/A   Overcast
9:19 AM 30.2 °F 21.3 °F 28.4 °F 93% 30.15 in 7.0 mi SE 10.4 mph - N/A   Light Freezing Rain
9:21 AM 30.2 °F 21.3 °F 28.4 °F 93% 30.15 in 7.0 mi SE 10.4 mph - N/A   Light Freezing Rain
9:25 AM 30.2 °F 20.8 °F 28.4 °F 93% 30.15 in 7.0 mi SE 11.5 mph - N/A   Light Freezing Drizzle
9:48 AM 30.2 °F 21.9 °F 28.4 °F 93% 30.15 in 9.0 mi SE 9.2 mph - N/A   Light Freezing Rain
9:55 AM 29.8 °F 20.3 °F 28.6 °F 95% 30.15 in 9.0 mi SSE 11.5 mph - 0.00 in   Light Freezing Rain
10:04 AM 30.2 °F 20.8 °F 28.4 °F 93% 30.15 in 7.0 mi SSE 11.5 mph - N/A   Overcast
10:05 AM 30.2 °F 20.8 °F 28.4 °F 93% 30.15 in 7.0 mi SSE 11.5 mph - N/A   Overcast
10:07 AM 30.2 °F 20.2 °F 28.4 °F 93% 30.15 in 7.0 mi SSE 12.7 mph - N/A   Overcast
10:11 AM 30.2 °F 19.8 °F 28.4 °F 93% 30.15 in 7.0 mi SSE 13.8 mph - N/A   Overcast
10:13 AM 30.2 °F 20.8 °F 28.4 °F 93% 30.15 in 7.0 mi SSE 11.5 mph - N/A Rain Light Freezing Rain
10:14 AM 30.2 °F 20.8 °F 28.4 °F 93% 30.14 in 7.0 mi SSE 11.5 mph - N/A Rain Light Freezing Rain
10:26 AM 30.2 °F 21.3 °F 28.4 °F 93% 30.15 in 7.0 mi SSE 10.4 mph - N/A Rain Light Freezing Rain
10:44 AM 30.2 °F 21.3 °F 28.4 °F 93% 30.15 in 7.0 mi SSE 10.4 mph - N/A Rain Light Freezing Rain
10:45 AM 30.2 °F 21.3 °F 28.4 °F 93% 30.15 in 7.0 mi SSE 10.4 mph - N/A Rain Light Freezing Rain
10:47 AM 30.2 °F 21.9 °F 28.4 °F 93% 30.15 in 6.0 mi SSE 9.2 mph - N/A Rain Light Freezing Rain
10:51 AM 30.2 °F 21.3 °F 28.4 °F 93% 30.15 in 6.0 mi SSE 10.4 mph - N/A Rain Light Freezing Rain
10:53 AM 30.2 °F 21.3 °F 28.4 °F 93% 30.15 in 6.0 mi SSE 10.4 mph - N/A   Overcast
10:55 AM 31.1 °F 23.7 °F 29.3 °F 93% 30.15 in 6.0 mi SSE 8.1 mph - 0.00 in   Overcast
10:56 AM 30.2 °F 22.6 °F 30.2 °F 100% 30.15 in 6.0 mi SSE 8.1 mph - N/A   Overcast
10:58 AM 32.0 °F 24.2 °F 30.2 °F 93% 30.15 in 6.0 mi SSE 9.2 mph - N/A   Overcast
11:28 AM 30.2 °F 22.6 °F 30.2 °F 100% 30.16 in 7.0 mi SSE 8.1 mph - N/A   Overcast
11:43 AM 32.0 °F 24.2 °F 30.2 °F 93% 30.16 in 2.5 mi SSE 9.2 mph - N/A Snow Light Snow
11:49 AM 32.0 °F 24.2 °F 30.2 °F 93% 30.16 in 2.5 mi SSE 9.2 mph - N/A Snow Light Snow
11:53 AM 32.0 °F 24.8 °F 30.2 °F 93% 30.16 in 3.0 mi SSE 8.1 mph - N/A Snow Light Snow
11:55 AM 31.3 °F 23.9 °F 30.2 °F 96% 30.16 in 3.0 mi SE 8.1 mph - 0.00 in   Overcast
12:00 PM 32.0 °F 24.8 °F 30.2 °F 93% 30.16 in 3.0 mi SSE 8.1 mph - N/A   Overcast
12:08 PM 32.0 °F 25.6 °F 30.2 °F 93% 30.16 in 3.0 mi SSE 6.9 mph - N/A Snow Light Snow
12:09 PM 32.0 °F 24.8 °F 30.2 °F 93% 30.16 in 3.0 mi SSE 8.1 mph - N/A Snow Light Snow
12:13 PM 32.0 °F 24.2 °F 30.2 °F 93% 30.16 in 3.0 mi SSE 9.2 mph - N/A Snow Light Snow
12:18 PM 32.0 °F 24.2 °F 30.2 °F 93% 30.16 in 2.5 mi SE 9.2 mph - N/A Snow Light Snow
12:24 PM 32.0 °F 24.8 °F 30.2 °F 93% 30.16 in 1.8 mi SE 8.1 mph - N/A Snow Light Snow
12:31 PM 32.0 °F 24.8 °F 30.2 °F 93% 30.15 in 1.5 mi SE 8.1 mph - N/A Snow Light Snow
12:35 PM 32.0 °F 24.8 °F 30.2 °F 93% 30.15 in 1.8 mi SE 8.1 mph - N/A Snow Light Snow
12:38 PM 32.0 °F 24.8 °F 30.2 °F 93% 30.15 in 2.0 mi SE 8.1 mph - N/A Snow Light Snow
12:40 PM 32.0 °F 24.8 °F 30.2 °F 93% 30.15 in 2.5 mi SE 8.1 mph - N/A Snow Light Snow
12:43 PM 32.0 °F 24.8 °F 30.2 °F 93% 30.15 in 3.0 mi SE 8.1 mph - N/A   Overcast
12:49 PM 32.0 °F 24.2 °F 32.0 °F 100% 30.15 in 5.0 mi SE 9.2 mph - N/A   Overcast
12:55 PM 31.6 °F 24.4 °F 31.1 °F 98% 30.15 in 4.0 mi SE 8.1 mph - 0.01 in   Overcast
1:24 PM 32.0 °F 24.8 °F 32.0 °F 100% 30.16 in 3.0 mi SE 8.1 mph - N/A   Overcast
1:27 PM 32.0 °F 24.8 °F 32.0 °F 100% 30.16 in 2.5 mi SE 8.1 mph - N/A   Light Drizzle
1:52 PM 32.0 °F 24.8 °F 32.0 °F 100% 30.15 in 3.0 mi SE 8.1 mph - N/A   Light Drizzle
1:55 PM 32.2 °F 24.4 °F 32.0 °F 99% 30.15 in 3.0 mi SE 9.2 mph - 0.01 in   Overcast
2:32 PM 32.0 °F 26.4 °F 32.0 °F 100% 30.16 in 5.0 mi SE 5.8 mph - N/A   Overcast
2:33 PM 32.0 °F 25.6 °F 32.0 °F 100% 30.16 in 5.0 mi SE 6.9 mph - N/A   Overcast
2:46 PM 32.0 °F 26.4 °F 32.0 °F 100% 30.17 in 6.0 mi SE 5.8 mph - N/A   Overcast
2:55 PM 32.2 °F 25.0 °F 32.0 °F 99% 30.17 in 6.0 mi SE 8.1 mph - 0.01 in   Overcast
3:55 PM 32.4 °F 26.9 °F 32.0 °F 99% 30.18 in 6.0 mi SE 5.8 mph - 0.03 in   Overcast
4:25 PM 32.0 °F 28.7 °F 32.0 °F 100% 30.20 in 2.5 mi SE 3.5 mph - N/A   Overcast
4:33 PM 32.0 °F 28.7 °F 32.0 °F 100% 30.20 in 2.0 mi SE 3.5 mph - N/A   Overcast
4:37 PM 32.0 °F - 32.0 °F 100% 30.20 in 1.8 mi Calm Calm - N/A   Overcast
4:55 PM 32.2 °F 28.9 °F 32.0 °F 99% 30.21 in 1.5 mi ESE 3.5 mph - 0.02 in   Overcast
4:56 PM 32.0 °F 28.7 °F 32.0 °F 100% 30.21 in 1.5 mi ESE 3.5 mph - N/A   Overcast
5:35 PM 32.0 °F 27.5 °F 32.0 °F 100% 30.21 in 2.0 mi SSE 4.6 mph - N/A   Overcast
5:44 PM 32.0 °F 27.5 °F 32.0 °F 100% 30.21 in 3.0 mi South 4.6 mph - N/A   Overcast
5:47 PM 32.0 °F 28.7 °F 32.0 °F 100% 30.22 in 3.0 mi South 3.5 mph - N/A   Overcast
5:55 PM 32.0 °F - 31.8 °F 99% 30.23 in 4.0 mi Calm Calm - 0.03 in   Overcast
6:07 PM 32.0 °F - 32.0 °F 100% 30.23 in 4.0 mi Calm Calm - N/A   Overcast
6:11 PM 32.0 °F - 32.0 °F 100% 30.24 in 4.0 mi Calm Calm - N/A   Overcast
6:55 PM 32.2 °F - 31.8 °F 99% 30.24 in 3.0 mi Calm Calm - 0.02 in   Overcast
7:11 PM 32.0 °F - 32.0 °F 100% 30.24 in 3.0 mi Calm Calm - N/A   Overcast
7:12 PM 32.0 °F - 32.0 °F 100% 30.24 in 2.5 mi Calm Calm - N/A   Overcast
7:40 PM 32.0 °F - 32.0 °F 100% 30.25 in 1.8 mi Calm Calm - N/A   Overcast
7:45 PM 32.0 °F - 32.0 °F 100% 30.25 in 1.2 mi Calm Calm - N/A   Overcast
7:49 PM 32.0 °F - 32.0 °F 100% 30.25 in 1.0 mi Calm Calm - N/A   Mist
7:50 PM 32.0 °F 28.7 °F 32.0 °F 100% 30.25 in 1.0 mi SE 3.5 mph - N/A   Mist
7:54 PM 32.0 °F 28.7 °F 32.0 °F 100% 30.25 in 1.0 mi SE 3.5 mph - N/A   Mist
7:55 PM 32.2 °F 28.9 °F 32.0 °F 99% 30.25 in 0.8 mi SE 3.5 mph - 0.01 in   Mist
8:18 PM 32.0 °F - 32.0 °F 100% 30.25 in 0.8 mi Calm Calm - N/A   Mist
8:36 PM 32.0 °F - 32.0 °F 100% 30.25 in 0.8 mi Calm Calm - N/A   Mist
8:48 PM 32.0 °F - 32.0 °F 100% 30.25 in 0.5 mi Calm Calm - N/A Fog Fog
8:49 PM 32.0 °F - 32.0 °F 100% 30.25 in 0.5 mi Calm Calm - N/A Fog Fog
8:55 PM 32.0 °F - 31.8 °F 99% 30.26 in 0.5 mi Calm Calm - 0.02 in Fog Fog
9:48 PM 32.0 °F - 32.0 °F 100% 30.27 in 0.5 mi Calm Calm - N/A Fog Fog
9:55 PM 32.2 °F 28.9 °F 31.8 °F 99% 30.27 in 0.5 mi West 3.5 mph - 0.02 in Fog Fog
9:57 PM 32.0 °F 28.7 °F 32.0 °F 100% 30.27 in 0.5 mi West 3.5 mph - N/A Fog Fog
10:10 PM 32.0 °F - 32.0 °F 100% 30.26 in 0.5 mi Calm Calm - N/A Fog Fog
10:13 PM 32.0 °F - 32.0 °F 100% 30.27 in 0.8 mi Calm Calm - N/A   Mist
10:19 PM 32.0 °F - 32.0 °F 100% 30.26 in 0.8 mi Calm Calm - N/A   Mist
10:40 PM 32.0 °F 28.7 °F 32.0 °F 100% 30.26 in 0.8 mi NW 3.5 mph - N/A   Mist
10:50 PM 32.0 °F 28.7 °F 32.0 °F 100% 30.26 in 1.0 mi NW 3.5 mph - N/A   Mist
10:53 PM 32.0 °F 28.7 °F 32.0 °F 100% 30.26 in 1.0 mi NW 3.5 mph - N/A   Mist
10:55 PM 32.4 °F 27.9 °F 32.2 °F 99% 30.26 in 1.0 mi NW 4.6 mph - 0.01 in   Mist
10:56 PM 32.0 °F 27.5 °F 32.0 °F 100% 30.26 in 1.0 mi NW 4.6 mph - N/A   Mist
10:57 PM 32.0 °F 27.5 °F 32.0 °F 100% 30.26 in 1.2 mi NW 4.6 mph - N/A   Overcast